Flag for U.S.A. Weather past 2 weeks in Daly City, California, U.S.A.

Now
62 °F

Passing clouds.


Feels Like: 62 °F
Forecast: 58 / 68 °F
Wind: 17 mph from Northwest

Location: San Francisco International Airport

Current Time: Jul 3, 2015 at 8:23:31 PM

Latest Report: Jul 3, 2015 at 7:56 PM


Visibility: 10 mi

Pressure: 29.89 "Hg

Humidity: 83%

Dew point: 57 °F

Location of Daly CityLocation

Historic Weather in Daly City — Graph

°F

Daly City temperature yesterday

Maximum temperature yesterday: 71 °F (at 11:56 AM)
Minimum temperature yesterday: 58 °F (at 3:56 AM)
Average temperature yesterday: 64 °F

Past Weeks' High & Low Weather Summary

 TemperatureHumidityPressure
High77 °F (Jun 30, 1:56 PM)93% (Jun 20, 6:56 AM)30.07 "Hg (Jun 20, 6:56 AM)
Low51 °F (Jun 19, 4:56 AM)47% (Jun 30, 1:56 PM)29.80 "Hg (Jun 30, 5:56 PM)
Average62 °F73%29.95 "Hg
* Reported Jun 18 6:56 PM — Jul 3 6:56 PM, Daly City, Weather by CustomWeather, © 2015

Note: Actual official high and low records may vary slightly from our data, if they occured in-between our weather recording intervals... More about our weather records

Advertising

Daly City weather history for previous 24 hours

 ConditionsComfort  
Time TempWeatherWind HumidityBarometerVisibility
6:56 PM
Fri, Jul 3
64 °FPassing clouds.18 mph78%29.88 "Hg10 mi
5:56 PM66 °FPassing clouds.24 mph73%29.88 "Hg10 mi
4:56 PM68 °FPassing clouds.23 mph68%29.88 "Hg10 mi
3:56 PM69 °FPassing clouds.22 mph66%29.88 "Hg10 mi
2:56 PM70 °FPassing clouds.23 mph64%29.90 "Hg10 mi
1:56 PM72 °FPassing clouds.16 mph59%29.91 "Hg10 mi
12:56 PM72 °FPassing clouds.17 mph61%29.93 "Hg10 mi
11:56 AM70 °FPassing clouds.12 mph66%29.94 "Hg10 mi
10:56 AM67 °FPassing clouds.10 mph73%29.95 "Hg10 mi
9:56 AM66 °FPassing clouds.10 mph75%29.95 "Hg10 mi
8:56 AM65 °FScattered clouds.13 mph78%29.95 "Hg10 mi
7:56 AM63 °FLight rain. Partly sunny.7 mph81%29.96 "Hg10 mi
6:56 AM61 °FPartly sunny.6 mph83%29.95 "Hg10 mi
5:56 AM59 °FPartly cloudy.6 mph90%29.94 "Hg10 mi
4:56 AM59 °FPassing clouds.6 mph93%29.92 "Hg10 mi
3:56 AM59 °FPassing clouds.9 mph93%29.91 "Hg10 mi
2:56 AM59 °FPassing clouds.9 mph93%29.92 "Hg10 mi
1:56 AM59 °FPartly cloudy.9 mph93%29.93 "Hg10 mi
12:56 AM60 °FPartly cloudy.10 mph90%29.94 "Hg10 mi
11:56 PM
Thu, Jul 2
60 °FPartly cloudy.12 mph93%29.96 "Hg10 mi
10:56 PM62 °FPassing clouds.9 mph83%29.94 "Hg10 mi
9:56 PM62 °FPassing clouds.8 mph83%29.94 "Hg10 mi
8:56 PM63 °FBroken clouds.12 mph81%29.93 "Hg10 mi
Weather by CustomWeather, © 2015

See weather overviewHow to use our weather pages